contact:dominique.lefevre@mio.osupytheas.fr, maurice.libes@osupytheas.fr, didier.mallarino@osupytheas.fr
Project:EMSO http://www.emso-fr.org/EMSO-France
Depth: 2436.0 m
Title:EMSO Ligure Ouest : Data MII capteur MICROCAT
DateTime_Computer,Latitude,Longitude,Temperature,Conductivity,Pressure,DateTime_Instrument
DateTime_Computer,Latitude,Longitude,degC,S m-1,dbar,DateTime_Instrument
2021-12-27T00:02:15Z,42.805,6.029,13.3034,4.60049,2470.11,2021-12-27T02:03:45Z
2021-12-27T00:05:18Z,42.805,6.029,13.3047,4.60046,2470.147,2021-12-27T02:06:48Z
2021-12-27T00:08:21Z,42.805,6.029,13.3038,4.60049,2470.1,2021-12-27T02:09:51Z
2021-12-27T00:11:25Z,42.805,6.029,13.3038,4.60051,2470.133,2021-12-27T02:12:54Z
2021-12-27T00:14:28Z,42.805,6.029,13.3026,4.60054,2470.11,2021-12-27T02:15:57Z
2021-12-27T00:17:31Z,42.805,6.029,13.3047,4.60046,2470.11,2021-12-27T02:19:00Z
2021-12-27T00:20:34Z,42.805,6.029,13.3041,4.60048,2470.087,2021-12-27T02:22:03Z
2021-12-27T00:23:37Z,42.805,6.029,13.3027,4.60048,2470.147,2021-12-27T02:25:06Z
2021-12-27T00:26:40Z,42.805,6.029,13.3030,4.60039,2470.147,2021-12-27T02:28:10Z
2021-12-27T00:29:43Z,42.805,6.029,13.3031,4.60056,2470.11,2021-12-27T02:31:13Z
2021-12-27T00:32:46Z,42.805,6.029,13.3041,4.60057,2470.087,2021-12-27T02:34:16Z
2021-12-27T00:35:50Z,42.805,6.029,13.3018,4.60051,2470.077,2021-12-27T02:37:19Z
2021-12-27T00:38:53Z,42.805,6.029,13.3044,4.60053,2470.11,2021-12-27T02:40:22Z
2021-12-27T00:41:56Z,42.805,6.029,13.3042,4.60060,2470.11,2021-12-27T02:43:25Z
2021-12-27T00:44:59Z,42.805,6.029,13.3001,4.60053,2470.124,2021-12-27T02:46:28Z
2021-12-27T00:48:02Z,42.805,6.029,13.2995,4.60052,2470.133,2021-12-27T02:49:31Z
2021-12-27T00:51:05Z,42.805,6.029,13.2996,4.60035,2470.11,2021-12-27T02:52:35Z
2021-12-27T00:54:08Z,42.805,6.029,13.2991,4.60032,2470.143,2021-12-27T02:55:38Z
2021-12-27T00:57:11Z,42.805,6.029,13.2996,4.60031,2470.147,2021-12-27T02:58:41Z
2021-12-27T01:00:15Z,42.805,6.029,13.2993,4.60039,2470.124,2021-12-27T03:01:44Z
2021-12-27T01:03:18Z,42.805,6.029,13.3039,4.60044,2470.133,2021-12-27T03:04:47Z
2021-12-27T01:06:21Z,42.805,6.029,13.3003,4.60049,2470.11,2021-12-27T03:07:50Z
2021-12-27T01:09:24Z,42.805,6.029,13.2998,4.60045,2470.11,2021-12-27T03:10:53Z
2021-12-27T01:12:27Z,42.805,6.029,13.2993,4.60049,2470.147,2021-12-27T03:13:56Z
2021-12-27T01:15:30Z,42.805,6.029,13.2992,4.60066,2470.124,2021-12-27T03:17:00Z
2021-12-27T01:18:33Z,42.805,6.029,13.2997,4.60046,2470.147,2021-12-27T03:20:03Z
2021-12-27T01:21:36Z,42.805,6.029,13.2996,4.60050,2470.11,2021-12-27T03:23:06Z
2021-12-27T01:24:40Z,42.805,6.029,13.2995,4.60043,2470.147,2021-12-27T03:26:09Z
2021-12-27T01:27:43Z,42.805,6.029,13.2998,4.60034,2470.124,2021-12-27T03:29:12Z
2021-12-27T01:30:46Z,42.805,6.029,13.2993,4.60047,2470.124,2021-12-27T03:32:15Z
2021-12-27T01:33:49Z,42.805,6.029,13.2995,4.60041,2470.11,2021-12-27T03:35:18Z
2021-12-27T01:36:52Z,42.805,6.029,13.2993,4.60033,2470.133,2021-12-27T03:38:21Z
2021-12-27T01:39:55Z,42.805,6.029,13.2990,4.60029,2470.147,2021-12-27T03:41:25Z
2021-12-27T01:42:58Z,42.805,6.029,13.2991,4.60035,2470.11,2021-12-27T03:44:28Z
2021-12-27T01:46:01Z,42.805,6.029,13.2992,4.60034,2470.133,2021-12-27T03:47:31Z
2021-12-27T01:49:05Z,42.805,6.029,13.2993,4.60032,2470.124,2021-12-27T03:50:34Z
2021-12-27T01:52:08Z,42.805,6.029,13.2996,4.60032,2470.124,2021-12-27T03:53:37Z
2021-12-27T01:55:11Z,42.805,6.029,13.2992,4.60026,2470.1,2021-12-27T03:56:40Z
2021-12-27T01:58:14Z,42.805,6.029,13.3000,4.60025,2470.087,2021-12-27T03:59:43Z
2021-12-27T02:01:17Z,42.805,6.029,13.2993,4.60028,2470.1,2021-12-27T04:02:46Z
2021-12-27T02:04:20Z,42.805,6.029,13.2991,4.60021,2470.11,2021-12-27T04:05:50Z
2021-12-27T02:07:23Z,42.805,6.029,13.2991,4.60023,2470.133,2021-12-27T04:08:53Z
2021-12-27T02:10:26Z,42.805,6.029,13.2990,4.60026,2470.11,2021-12-27T04:11:56Z
2021-12-27T02:13:29Z,42.805,6.029,13.2993,4.60026,2470.087,2021-12-27T04:14:59Z
2021-12-27T02:16:33Z,42.805,6.029,13.2997,4.60022,2470.133,2021-12-27T04:18:02Z
2021-12-27T02:19:36Z,42.805,6.029,13.2991,4.60029,2470.133,2021-12-27T04:21:05Z
2021-12-27T02:22:39Z,42.805,6.029,13.2996,4.60023,2470.11,2021-12-27T04:24:08Z
2021-12-27T02:25:42Z,42.805,6.029,13.2996,4.60031,2470.087,2021-12-27T04:27:11Z
2021-12-27T02:28:45Z,42.805,6.029,13.2993,4.60031,2470.133,2021-12-27T04:30:15Z
2021-12-27T02:31:48Z,42.805,6.029,13.2993,4.60028,2470.124,2021-12-27T04:33:18Z
2021-12-27T02:34:51Z,42.805,6.029,13.2990,4.60023,2470.087,2021-12-27T04:36:21Z
2021-12-27T02:37:54Z,42.805,6.029,13.2993,4.60031,2470.147,2021-12-27T04:39:24Z
2021-12-27T02:40:58Z,42.805,6.029,13.2997,4.60035,2470.11,2021-12-27T04:42:27Z
2021-12-27T02:44:01Z,42.805,6.029,13.2990,4.60029,2470.124,2021-12-27T04:45:30Z
2021-12-27T02:47:04Z,42.805,6.029,13.2990,4.60029,2470.133,2021-12-27T04:48:33Z
2021-12-27T02:50:07Z,42.805,6.029,13.2993,4.60031,2470.124,2021-12-27T04:51:36Z
2021-12-27T02:53:10Z,42.805,6.029,13.2995,4.60024,2470.11,2021-12-27T04:54:40Z
2021-12-27T02:56:13Z,42.805,6.029,13.2995,4.60036,2470.11,2021-12-27T04:57:43Z
2021-12-27T02:59:16Z,42.805,6.029,13.2996,4.60022,2470.087,2021-12-27T05:00:46Z
2021-12-27T03:02:19Z,42.805,6.029,13.2996,4.60031,2470.11,2021-12-27T05:03:49Z
2021-12-27T03:05:23Z,42.805,6.029,13.2991,4.60031,2470.11,2021-12-27T05:06:52Z
2021-12-27T03:08:26Z,42.805,6.029,13.2994,4.60026,2470.11,2021-12-27T05:09:55Z
2021-12-27T03:11:29Z,42.805,6.029,13.2993,4.60021,2470.11,2021-12-27T05:12:58Z
2021-12-27T03:14:32Z,42.805,6.029,13.2993,4.60019,2470.087,2021-12-27T05:16:01Z
2021-12-27T03:17:35Z,42.805,6.029,13.2993,4.60020,2470.11,2021-12-27T05:19:04Z
2021-12-27T03:20:38Z,42.805,6.029,13.2990,4.60019,2470.124,2021-12-27T05:22:08Z
2021-12-27T03:23:41Z,42.805,6.029,13.2995,4.60021,2470.147,2021-12-27T05:25:11Z
2021-12-27T03:26:44Z,42.805,6.029,13.2996,4.60024,2470.147,2021-12-27T05:28:14Z
2021-12-27T03:29:48Z,42.805,6.029,13.2988,4.60020,2470.133,2021-12-27T05:31:17Z
2021-12-27T03:32:51Z,42.805,6.029,13.2993,4.60021,2470.133,2021-12-27T05:34:20Z
2021-12-27T03:35:54Z,42.805,6.029,13.2995,4.60022,2470.133,2021-12-27T05:37:23Z
2021-12-27T03:38:57Z,42.805,6.029,13.2997,4.60021,2470.096,2021-12-27T05:40:26Z
2021-12-27T03:42:00Z,42.805,6.029,13.2997,4.60028,2470.1,2021-12-27T05:43:29Z
2021-12-27T03:45:03Z,42.805,6.029,13.2996,4.60021,2470.11,2021-12-27T05:46:33Z
2021-12-27T03:48:06Z,42.805,6.029,13.2993,4.60019,2470.11,2021-12-27T05:49:36Z
2021-12-27T03:51:09Z,42.805,6.029,13.2993,4.60020,2470.11,2021-12-27T05:52:39Z
2021-12-27T03:54:13Z,42.805,6.029,13.2996,4.60016,2470.11,2021-12-27T05:55:42Z
2021-12-27T03:57:16Z,42.805,6.029,13.2996,4.60017,2470.133,2021-12-27T05:58:45Z
2021-12-27T04:00:19Z,42.805,6.029,13.2991,4.60021,2470.1,2021-12-27T06:01:48Z
2021-12-27T04:03:22Z,42.805,6.029,13.2995,4.60019,2470.11,2021-12-27T06:04:51Z
2021-12-27T04:06:25Z,42.805,6.029,13.2995,4.60016,2470.156,2021-12-27T06:07:54Z
2021-12-27T04:09:28Z,42.805,6.029,13.2993,4.60017,2470.156,2021-12-27T06:10:58Z
2021-12-27T04:12:31Z,42.805,6.029,13.2993,4.60021,2470.087,2021-12-27T06:14:01Z
2021-12-27T04:15:34Z,42.805,6.029,13.2991,4.60020,2470.087,2021-12-27T06:17:04Z
2021-12-27T04:18:38Z,42.805,6.029,13.2993,4.60019,2470.124,2021-12-27T06:20:07Z
2021-12-27T04:21:41Z,42.805,6.029,13.2994,4.60019,2470.063,2021-12-27T06:23:10Z
2021-12-27T04:24:44Z,42.805,6.029,13.2996,4.60019,2470.124,2021-12-27T06:26:13Z
2021-12-27T04:27:47Z,42.805,6.029,13.2996,4.60021,2470.1,2021-12-27T06:29:16Z
2021-12-27T04:30:50Z,42.805,6.029,13.2993,4.60018,2470.18,2021-12-27T06:32:19Z
2021-12-27T04:33:53Z,42.805,6.029,13.2996,4.60016,2470.124,2021-12-27T06:35:23Z
2021-12-27T04:36:56Z,42.805,6.029,13.2996,4.60023,2470.11,2021-12-27T06:38:26Z
2021-12-27T04:39:59Z,42.805,6.029,13.2991,4.60021,2470.11,2021-12-27T06:41:29Z
2021-12-27T04:43:03Z,42.805,6.029,13.2993,4.60018,2470.11,2021-12-27T06:44:32Z
2021-12-27T04:46:06Z,42.805,6.029,13.2996,4.60016,2470.087,2021-12-27T06:47:35Z
2021-12-27T04:49:09Z,42.805,6.029,13.2993,4.60017,2470.11,2021-12-27T06:50:38Z
2021-12-27T04:52:12Z,42.805,6.029,13.2994,4.60016,2470.073,2021-12-27T06:53:41Z
2021-12-27T04:55:15Z,42.805,6.029,13.2994,4.60019,2470.04,2021-12-27T06:56:44Z
2021-12-27T04:58:18Z,42.805,6.029,13.2991,4.60017,2470.133,2021-12-27T06:59:48Z
2021-12-27T05:01:21Z,42.805,6.029,13.2994,4.60019,2470.133,2021-12-27T07:02:51Z
2021-12-27T05:04:24Z,42.805,6.029,13.2993,4.60019,2470.087,2021-12-27T07:05:54Z
2021-12-27T05:07:27Z,42.805,6.029,13.2991,4.60019,2470.077,2021-12-27T07:08:57Z
2021-12-27T05:10:31Z,42.805,6.029,13.2998,4.60019,2470.04,2021-12-27T07:12:00Z
2021-12-27T05:13:34Z,42.805,6.029,13.2991,4.60019,2470.124,2021-12-27T07:15:03Z
2021-12-27T05:16:37Z,42.805,6.029,13.2995,4.60016,2470.1,2021-12-27T07:18:06Z
2021-12-27T05:19:40Z,42.805,6.029,13.2994,4.60016,2470.1,2021-12-27T07:21:09Z
2021-12-27T05:22:43Z,42.805,6.029,13.2992,4.60017,2470.087,2021-12-27T07:24:13Z
2021-12-27T05:25:46Z,42.805,6.029,13.2996,4.60019,2470.087,2021-12-27T07:27:16Z
2021-12-27T05:28:49Z,42.805,6.029,13.2997,4.60019,2470.077,2021-12-27T07:30:19Z
2021-12-27T05:31:53Z,42.805,6.029,13.2993,4.60021,2470.04,2021-12-27T07:33:22Z
2021-12-27T05:34:56Z,42.805,6.029,13.2995,4.60031,2470.063,2021-12-27T07:36:25Z
2021-12-27T05:37:59Z,42.805,6.029,13.2992,4.60019,2470.1,2021-12-27T07:39:28Z
2021-12-27T05:41:02Z,42.805,6.029,13.2988,4.60029,2470.077,2021-12-27T07:42:31Z
2021-12-27T05:44:05Z,42.805,6.029,13.2990,4.60019,2470.133,2021-12-27T07:45:34Z
2021-12-27T05:47:08Z,42.805,6.029,13.2994,4.60019,2470.063,2021-12-27T07:48:38Z
2021-12-27T05:50:11Z,42.805,6.029,13.2997,4.60018,2470.077,2021-12-27T07:51:41Z
2021-12-27T05:53:14Z,42.805,6.029,13.2991,4.60019,2470.1,2021-12-27T07:54:44Z
2021-12-27T05:56:17Z,42.805,6.029,13.2996,4.60021,2470.087,2021-12-27T07:57:47Z
2021-12-27T05:59:21Z,42.805,6.029,13.2996,4.60021,2470.1,2021-12-27T08:00:50Z
2021-12-27T06:02:24Z,42.805,6.029,13.2992,4.60021,2470.077,2021-12-27T08:03:53Z
2021-12-27T06:05:27Z,42.805,6.029,13.2994,4.60019,2470.063,2021-12-27T08:06:56Z
2021-12-27T06:08:30Z,42.805,6.029,13.2996,4.60023,2470.063,2021-12-27T08:09:59Z
2021-12-27T06:11:33Z,42.805,6.029,13.2995,4.60021,2470.087,2021-12-27T08:13:03Z
2021-12-27T06:14:36Z,42.805,6.029,13.2993,4.60019,2470.063,2021-12-27T08:16:06Z
2021-12-27T06:17:39Z,42.805,6.029,13.2993,4.60024,2470.063,2021-12-27T08:19:09Z
2021-12-27T06:20:42Z,42.805,6.029,13.2993,4.60028,2470.053,2021-12-27T08:22:12Z
2021-12-27T06:23:46Z,42.805,6.029,13.2993,4.60020,2470.04,2021-12-27T08:25:15Z
2021-12-27T06:26:49Z,42.805,6.029,13.2996,4.60023,2470.03,2021-12-27T08:28:18Z
2021-12-27T06:29:52Z,42.805,6.029,13.2992,4.60018,2470.04,2021-12-27T08:31:21Z
2021-12-27T06:32:55Z,42.805,6.029,13.2992,4.60021,2470.053,2021-12-27T08:34:24Z
2021-12-27T06:35:58Z,42.805,6.029,13.2993,4.60020,2470.063,2021-12-27T08:37:28Z
2021-12-27T06:39:01Z,42.805,6.029,13.2992,4.60017,2470.077,2021-12-27T08:40:31Z
2021-12-27T06:42:04Z,42.805,6.029,13.2992,4.60015,2470.063,2021-12-27T08:43:34Z
2021-12-27T06:45:07Z,42.805,6.029,13.2997,4.60023,2470.087,2021-12-27T08:46:37Z
2021-12-27T06:48:11Z,42.805,6.029,13.2993,4.60026,2470.063,2021-12-27T08:49:40Z
2021-12-27T06:51:14Z,42.805,6.029,13.2994,4.60015,2470.087,2021-12-27T08:52:43Z
2021-12-27T06:54:17Z,42.805,6.029,13.2991,4.60021,2470.04,2021-12-27T08:55:46Z
2021-12-27T06:57:20Z,42.805,6.029,13.2993,4.60026,2470.053,2021-12-27T08:58:49Z
2021-12-27T07:00:23Z,42.805,6.029,13.2996,4.60029,2470.124,2021-12-27T09:01:53Z
2021-12-27T07:03:26Z,42.805,6.029,13.3008,4.60029,2470.077,2021-12-27T09:04:56Z
2021-12-27T07:06:29Z,42.805,6.029,13.3000,4.60024,2470.1,2021-12-27T09:07:59Z
2021-12-27T07:09:32Z,42.805,6.029,13.2996,4.60025,2470.063,2021-12-27T09:11:02Z
2021-12-27T07:12:36Z,42.805,6.029,13.3046,4.60021,2470.063,2021-12-27T09:14:05Z
2021-12-27T07:15:39Z,42.805,6.029,13.3011,4.60054,2470.04,2021-12-27T09:17:08Z
2021-12-27T07:18:42Z,42.805,6.029,13.3042,4.60076,2470.063,2021-12-27T09:20:11Z
2021-12-27T07:21:45Z,42.805,6.029,13.3020,4.60071,2470.077,2021-12-27T09:23:14Z
2021-12-27T07:24:48Z,42.805,6.029,13.3010,4.60040,2470.04,2021-12-27T09:26:18Z
2021-12-27T07:27:51Z,42.805,6.029,13.3023,4.60042,2470.077,2021-12-27T09:29:21Z
2021-12-27T07:30:54Z,42.805,6.029,13.3032,4.60039,2470.077,2021-12-27T09:32:24Z
2021-12-27T07:33:57Z,42.805,6.029,13.3041,4.60056,2470.053,2021-12-27T09:35:27Z
2021-12-27T07:37:01Z,42.805,6.029,13.3047,4.60044,2470.1,2021-12-27T09:38:30Z
2021-12-27T07:40:04Z,42.805,6.029,13.3039,4.60048,2470.063,2021-12-27T09:41:33Z
2021-12-27T07:43:07Z,42.805,6.029,13.3026,4.60091,2470.053,2021-12-27T09:44:36Z
2021-12-27T07:46:10Z,42.805,6.029,13.3027,4.60096,2470.087,2021-12-27T09:47:39Z
2021-12-27T07:49:13Z,42.805,6.029,13.3033,4.60052,2470.1,2021-12-27T09:50:43Z
2021-12-27T07:52:16Z,42.805,6.029,13.3029,4.60062,2470.1,2021-12-27T09:53:46Z
2021-12-27T07:55:19Z,42.805,6.029,13.3027,4.60067,2470.11,2021-12-27T09:56:49Z
2021-12-27T07:58:22Z,42.805,6.029,13.3026,4.60086,2470.124,2021-12-27T09:59:52Z
2021-12-27T08:01:26Z,42.805,6.029,13.3024,4.60096,2470.063,2021-12-27T10:02:55Z
2021-12-27T08:04:29Z,42.805,6.029,13.3021,4.60091,2470.11,2021-12-27T10:05:58Z
2021-12-27T08:07:32Z,42.805,6.029,13.3019,4.60075,2470.087,2021-12-27T10:09:01Z
2021-12-27T08:10:35Z,42.805,6.029,13.3015,4.60057,2470.077,2021-12-27T10:12:04Z
2021-12-27T08:13:38Z,42.805,6.029,13.3013,4.60069,2470.063,2021-12-27T10:15:07Z
2021-12-27T08:16:41Z,42.805,6.029,13.3016,4.60112,2470.077,2021-12-27T10:18:11Z
2021-12-27T08:19:44Z,42.805,6.029,13.3043,4.60067,2470.053,2021-12-27T10:21:14Z
2021-12-27T08:22:47Z,42.805,6.029,13.3023,4.60091,2470.11,2021-12-27T10:24:17Z
2021-12-27T08:25:51Z,42.805,6.029,13.3034,4.60082,2470.1,2021-12-27T10:27:20Z
2021-12-27T08:28:54Z,42.805,6.029,13.3048,4.60091,2470.063,2021-12-27T10:30:23Z
2021-12-27T08:31:57Z,42.805,6.029,13.3050,4.60063,2470.087,2021-12-27T10:33:26Z
2021-12-27T08:35:00Z,42.805,6.029,13.3032,4.60086,2470.063,2021-12-27T10:36:29Z
2021-12-27T08:38:03Z,42.805,6.029,13.3033,4.60119,2470.063,2021-12-27T10:39:33Z
2021-12-27T08:41:06Z,42.805,6.029,13.3034,4.60064,2470.087,2021-12-27T10:42:36Z
2021-12-27T08:44:09Z,42.805,6.029,13.3013,4.60074,2470.1,2021-12-27T10:45:39Z
2021-12-27T08:47:12Z,42.805,6.029,13.3034,4.60092,2470.053,2021-12-27T10:48:42Z
2021-12-27T08:50:16Z,42.805,6.029,13.3038,4.60090,2470.1,2021-12-27T10:51:45Z
2021-12-27T08:53:19Z,42.805,6.029,13.3054,4.60103,2470.063,2021-12-27T10:54:48Z
2021-12-27T08:56:22Z,42.805,6.029,13.3034,4.60092,2470.077,2021-12-27T10:57:51Z
2021-12-27T08:59:25Z,42.805,6.029,13.3020,4.60097,2470.124,2021-12-27T11:00:54Z
2021-12-27T09:02:28Z,42.805,6.029,13.3021,4.60091,2470.147,2021-12-27T11:03:58Z
2021-12-27T09:05:31Z,42.805,6.029,13.3019,4.60103,2470.147,2021-12-27T11:07:01Z
2021-12-27T09:08:34Z,42.805,6.029,13.3039,4.60091,2470.124,2021-12-27T11:10:04Z
2021-12-27T09:11:37Z,42.805,6.029,13.3014,4.60097,2470.124,2021-12-27T11:13:07Z
2021-12-27T09:14:41Z,42.805,6.029,13.3026,4.60121,2470.11,2021-12-27T11:16:10Z
2021-12-27T09:17:44Z,42.805,6.029,13.3014,4.60105,2470.11,2021-12-27T11:19:13Z
2021-12-27T09:20:47Z,42.805,6.029,13.3025,4.60082,2470.087,2021-12-27T11:22:16Z
2021-12-27T09:23:50Z,42.805,6.029,13.3013,4.60130,2470.063,2021-12-27T11:25:19Z
2021-12-27T09:26:53Z,42.805,6.029,13.3019,4.60098,2470.1,2021-12-27T11:28:23Z
2021-12-27T09:29:56Z,42.805,6.029,13.3015,4.60106,2470.11,2021-12-27T11:31:26Z
2021-12-27T09:32:59Z,42.805,6.029,13.3020,4.60121,2470.1,2021-12-27T11:34:29Z
2021-12-27T09:36:03Z,42.805,6.029,13.3024,4.60123,2470.124,2021-12-27T11:37:32Z
2021-12-27T09:39:06Z,42.805,6.029,13.3031,4.60097,2470.04,2021-12-27T11:40:35Z
2021-12-27T09:42:09Z,42.805,6.029,13.3016,4.60132,2470.11,2021-12-27T11:43:38Z
2021-12-27T09:45:12Z,42.805,6.029,13.3027,4.60121,2470.124,2021-12-27T11:46:41Z
2021-12-27T09:48:15Z,42.805,6.029,13.3027,4.60093,2470.077,2021-12-27T11:49:44Z
2021-12-27T09:51:18Z,42.805,6.029,13.3032,4.60056,2470.063,2021-12-27T11:52:48Z
2021-12-27T09:54:21Z,42.805,6.029,13.3006,4.60109,2470.11,2021-12-27T11:55:51Z
2021-12-27T09:57:24Z,42.805,6.029,13.3028,4.60094,2470.147,2021-12-27T11:58:54Z
2021-12-27T10:00:28Z,42.805,6.029,13.3020,4.60049,2470.087,2021-12-27T12:01:57Z
2021-12-27T10:03:31Z,42.805,6.029,13.3019,4.60096,2470.11,2021-12-27T12:05:00Z
2021-12-27T10:06:34Z,42.805,6.029,13.3024,4.60090,2470.124,2021-12-27T12:08:03Z
2021-12-27T10:09:37Z,42.805,6.029,13.3008,4.60071,2470.1,2021-12-27T12:11:06Z
2021-12-27T10:12:40Z,42.805,6.029,13.3012,4.60088,2470.11,2021-12-27T12:14:09Z
2021-12-27T10:15:43Z,42.805,6.029,13.3010,4.60079,2470.11,2021-12-27T12:17:13Z
2021-12-27T10:18:46Z,42.805,6.029,13.3008,4.60089,2470.133,2021-12-27T12:20:16Z
2021-12-27T10:21:49Z,42.805,6.029,13.3021,4.60092,2470.133,2021-12-27T12:23:19Z
2021-12-27T10:24:53Z,42.805,6.029,13.3002,4.60102,2470.11,2021-12-27T12:26:22Z
2021-12-27T10:27:56Z,42.805,6.029,13.3011,4.60087,2470.11,2021-12-27T12:29:25Z
2021-12-27T10:30:59Z,42.805,6.029,13.3015,4.60092,2470.1,2021-12-27T12:32:28Z
2021-12-27T10:34:02Z,42.805,6.029,13.3026,4.60096,2470.077,2021-12-27T12:35:31Z
2021-12-27T10:37:05Z,42.805,6.029,13.3015,4.60102,2470.11,2021-12-27T12:38:34Z
2021-12-27T10:40:08Z,42.805,6.029,13.3009,4.60067,2470.156,2021-12-27T12:41:38Z
2021-12-27T10:43:11Z,42.805,6.029,13.3006,4.60049,2470.11,2021-12-27T12:44:41Z
2021-12-27T10:46:14Z,42.805,6.029,13.3010,4.60049,2470.133,2021-12-27T12:47:44Z
2021-12-27T10:49:18Z,42.805,6.029,13.3014,4.60085,2470.147,2021-12-27T12:50:47Z
2021-12-27T10:52:21Z,42.805,6.029,13.3006,4.60060,2470.11,2021-12-27T12:53:50Z
2021-12-27T10:55:24Z,42.805,6.029,13.3004,4.60064,2470.171,2021-12-27T12:56:53Z
2021-12-27T10:58:27Z,42.805,6.029,13.3009,4.60079,2470.124,2021-12-27T12:59:56Z
2021-12-27T11:01:30Z,42.805,6.029,13.3004,4.60109,2470.11,2021-12-27T13:03:00Z
2021-12-27T11:04:33Z,42.805,6.029,13.3017,4.60087,2470.147,2021-12-27T13:06:03Z
2021-12-27T11:07:36Z,42.805,6.029,13.3020,4.60079,2470.171,2021-12-27T13:09:06Z
2021-12-27T11:10:39Z,42.805,6.029,13.3020,4.60080,2470.11,2021-12-27T13:12:09Z
2021-12-27T11:13:43Z,42.805,6.029,13.3043,4.60057,2470.133,2021-12-27T13:15:12Z
2021-12-27T11:16:46Z,42.805,6.029,13.3009,4.60077,2470.1,2021-12-27T13:18:15Z
2021-12-27T11:19:49Z,42.805,6.029,13.3008,4.60101,2470.171,2021-12-27T13:21:18Z
2021-12-27T11:22:52Z,42.805,6.029,13.3015,4.60116,2470.194,2021-12-27T13:24:21Z
2021-12-27T11:25:55Z,42.805,6.029,13.3036,4.60099,2470.171,2021-12-27T13:27:25Z
2021-12-27T11:28:58Z,42.805,6.029,13.3009,4.60074,2470.147,2021-12-27T13:30:28Z
2021-12-27T11:32:01Z,42.805,6.029,13.3009,4.60137,2470.133,2021-12-27T13:33:31Z
2021-12-27T11:35:04Z,42.805,6.029,13.3016,4.60099,2470.171,2021-12-27T13:36:34Z
2021-12-27T11:38:08Z,42.805,6.029,13.3035,4.60102,2470.147,2021-12-27T13:39:37Z
2021-12-27T11:41:11Z,42.805,6.029,13.3057,4.60072,2470.124,2021-12-27T13:42:40Z
2021-12-27T11:44:14Z,42.805,6.029,13.3051,4.60103,2470.194,2021-12-27T13:45:43Z
2021-12-27T11:47:17Z,42.805,6.029,13.3049,4.60085,2470.156,2021-12-27T13:48:46Z
2021-12-27T11:50:20Z,42.805,6.029,13.3044,4.60074,2470.147,2021-12-27T13:51:50Z
2021-12-27T11:53:23Z,42.805,6.029,13.3053,4.60094,2470.156,2021-12-27T13:54:53Z
2021-12-27T11:56:26Z,42.805,6.029,13.3058,4.60099,2470.171,2021-12-27T13:57:56Z
2021-12-27T11:59:29Z,42.805,6.029,13.3066,4.60089,2470.133,2021-12-27T14:00:59Z
2021-12-27T12:02:33Z,42.805,6.029,13.3045,4.60076,2470.087,2021-12-27T14:04:02Z
2021-12-27T12:05:36Z,42.805,6.029,13.3055,4.60081,2470.133,2021-12-27T14:07:05Z
2021-12-27T12:08:39Z,42.805,6.029,13.3030,4.60093,2470.147,2021-12-27T14:10:08Z
2021-12-27T12:11:42Z,42.805,6.029,13.3056,4.60094,2470.124,2021-12-27T14:13:11Z
2021-12-27T12:14:45Z,42.805,6.029,13.3063,4.60092,2470.124,2021-12-27T14:16:15Z
2021-12-27T12:17:48Z,42.805,6.029,13.3060,4.60066,2470.147,2021-12-27T14:19:18Z
2021-12-27T12:20:51Z,42.805,6.029,13.3067,4.60052,2470.133,2021-12-27T14:22:21Z
2021-12-27T12:23:55Z,42.805,6.029,13.3078,4.60064,2470.133,2021-12-27T14:25:24Z
2021-12-27T12:26:58Z,42.805,6.029,13.3051,4.60090,2470.147,2021-12-27T14:28:27Z
2021-12-27T12:30:01Z,42.805,6.029,13.3061,4.60089,2470.147,2021-12-27T14:31:30Z
2021-12-27T12:33:04Z,42.805,6.029,13.3068,4.60075,2470.194,2021-12-27T14:34:33Z
2021-12-27T12:36:07Z,42.805,6.029,13.3069,4.60082,2470.171,2021-12-27T14:37:36Z
2021-12-27T12:39:10Z,42.805,6.029,13.3078,4.60072,2470.133,2021-12-27T14:40:40Z
2021-12-27T12:42:13Z,42.805,6.029,13.3036,4.60104,2470.171,2021-12-27T14:43:43Z
2021-12-27T12:45:16Z,42.805,6.029,13.3067,4.60062,2470.147,2021-12-27T14:46:46Z
2021-12-27T12:48:20Z,42.805,6.029,13.3086,4.60080,2470.124,2021-12-27T14:49:49Z
2021-12-27T12:51:23Z,42.805,6.029,13.3029,4.60071,2470.171,2021-12-27T14:52:52Z
2021-12-27T12:54:26Z,42.805,6.029,13.3048,4.60058,2470.124,2021-12-27T14:55:55Z
2021-12-27T12:57:29Z,42.805,6.029,13.3034,4.60036,2470.147,2021-12-27T14:58:58Z
2021-12-27T13:00:32Z,42.805,6.029,13.3054,4.60084,2470.133,2021-12-27T15:02:01Z
2021-12-27T13:03:35Z,42.805,6.029,13.3062,4.60104,2470.11,2021-12-27T15:05:05Z
2021-12-27T13:06:38Z,42.805,6.029,13.3050,4.60081,2470.124,2021-12-27T15:08:08Z
2021-12-27T13:09:41Z,42.805,6.029,13.3029,4.60039,2470.11,2021-12-27T15:11:11Z
2021-12-27T13:12:45Z,42.805,6.029,13.3034,4.60044,2470.171,2021-12-27T15:14:14Z
2021-12-27T13:15:48Z,42.805,6.029,13.3050,4.60062,2470.124,2021-12-27T15:17:17Z
2021-12-27T13:18:51Z,42.805,6.029,13.3026,4.60033,2470.124,2021-12-27T15:20:20Z
2021-12-27T13:21:54Z,42.805,6.029,13.3015,4.60059,2470.1,2021-12-27T15:23:23Z
2021-12-27T13:24:57Z,42.805,6.029,13.3035,4.60054,2470.1,2021-12-27T15:26:27Z
2021-12-27T13:28:00Z,42.805,6.029,13.3028,4.60064,2470.124,2021-12-27T15:29:30Z
2021-12-27T13:31:03Z,42.805,6.029,13.3029,4.60057,2470.11,2021-12-27T15:32:33Z
2021-12-27T13:34:06Z,42.805,6.029,13.3028,4.60061,2470.124,2021-12-27T15:35:36Z
2021-12-27T13:37:10Z,42.805,6.029,13.3032,4.60051,2470.124,2021-12-27T15:38:39Z
2021-12-27T13:40:13Z,42.805,6.029,13.3030,4.60049,2470.133,2021-12-27T15:41:42Z
2021-12-27T13:43:16Z,42.805,6.029,13.3019,4.60079,2470.11,2021-12-27T15:44:45Z
2021-12-27T13:46:19Z,42.805,6.029,13.3044,4.60076,2470.077,2021-12-27T15:47:48Z
2021-12-27T13:49:22Z,42.805,6.029,13.3026,4.60067,2470.087,2021-12-27T15:50:52Z
2021-12-27T13:52:25Z,42.805,6.029,13.3029,4.60054,2470.1,2021-12-27T15:53:55Z
2021-12-27T13:55:28Z,42.805,6.029,13.3025,4.60064,2470.087,2021-12-27T15:56:58Z
2021-12-27T13:58:32Z,42.805,6.029,13.3029,4.60050,2470.1,2021-12-27T16:00:01Z
2021-12-27T14:01:35Z,42.805,6.029,13.3034,4.60053,2470.124,2021-12-27T16:03:04Z
2021-12-27T14:04:38Z,42.805,6.029,13.3046,4.60057,2470.077,2021-12-27T16:06:07Z
2021-12-27T14:07:41Z,42.805,6.029,13.3041,4.60061,2470.11,2021-12-27T16:09:10Z
2021-12-27T14:10:44Z,42.805,6.029,13.3031,4.60056,2470.124,2021-12-27T16:12:13Z
2021-12-27T14:13:47Z,42.805,6.029,13.3051,4.60039,2470.133,2021-12-27T16:15:17Z
2021-12-27T14:16:50Z,42.805,6.029,13.3067,4.60058,2470.124,2021-12-27T16:18:20Z
2021-12-27T14:19:53Z,42.805,6.029,13.3027,4.60055,2470.147,2021-12-27T16:21:23Z
2021-12-27T14:22:57Z,42.805,6.029,13.3045,4.60059,2470.11,2021-12-27T16:24:26Z
2021-12-27T14:26:00Z,42.805,6.029,13.3035,4.60061,2470.147,2021-12-27T16:27:29Z
2021-12-27T14:29:03Z,42.805,6.029,13.3058,4.60064,2470.11,2021-12-27T16:30:32Z
2021-12-27T14:32:06Z,42.805,6.029,13.3054,4.60063,2470.1,2021-12-27T16:33:35Z
2021-12-27T14:35:09Z,42.805,6.029,13.3041,4.60068,2470.1,2021-12-27T16:36:38Z
2021-12-27T14:38:12Z,42.805,6.029,13.3048,4.60049,2470.063,2021-12-27T16:39:42Z
2021-12-27T14:41:15Z,42.805,6.029,13.3051,4.60043,2470.147,2021-12-27T16:42:45Z
2021-12-27T14:44:18Z,42.805,6.029,13.3041,4.60054,2470.133,2021-12-27T16:45:48Z
2021-12-27T14:47:22Z,42.805,6.029,13.3067,4.60064,2470.124,2021-12-27T16:48:51Z
2021-12-27T14:50:25Z,42.805,6.029,13.3067,4.60052,2470.1,2021-12-27T16:51:54Z
2021-12-27T14:53:28Z,42.805,6.029,13.3032,4.60064,2470.11,2021-12-27T16:54:57Z
2021-12-27T14:56:31Z,42.805,6.029,13.3042,4.60057,2470.063,2021-12-27T16:58:00Z
2021-12-27T14:59:34Z,42.805,6.029,13.3036,4.60061,2470.063,2021-12-27T17:01:04Z
2021-12-27T15:02:37Z,42.805,6.029,13.3048,4.60048,2470.087,2021-12-27T17:04:07Z